Location: Peebles
(55.6412°N, 3.1714°W)
Time: 00:02:27
(UTC+01:00)

FENGYUN 1C DEB - Visible Passes

Search period start: 25 September 2022 00:00
Search period end: 05 October 2022 00:00
Orbit: 673 x 888 km, 97.5° (Epoch: 22 September)

Date Brightness Start Highest point End Pass type
(mag) Time Alt. Az. Time Alt. Az. Time Alt. Az.
25 Sep ? 20:30:58 10° S 20:35:52 48° W 20:41:07 10° NNW visible
26 Sep ? 19:58:20 10° SSE 20:03:28 80° WSW 20:08:57 10° NNW visible
26 Sep ? 21:40:38 10° WSW 21:43:51 16° W 21:47:13 10° NW visible
27 Sep ? 21:06:43 10° SSW 21:11:06 27° W 21:15:43 10° NNW visible
28 Sep ? 20:33:32 10° S 20:38:30 45° W 20:43:47 10° NNW visible
29 Sep ? 20:00:52 10° S 20:06:04 76° WSW 20:11:38 10° NNW visible
29 Sep ? 21:43:22 10° WSW 21:46:31 16° W 21:49:47 10° NW visible
30 Sep ? 19:28:36 10° SSE 19:33:47 68° ENE 19:39:20 10° N visible
30 Sep ? 21:09:21 10° SW 21:13:44 26° W 21:18:21 10° NNW visible
01 Oct ? 20:36:07 10° SSW 20:41:07 43° W 20:46:26 10° NNW visible
02 Oct ? 20:03:23 10° S 20:08:40 71° WSW 20:14:18 10° NNW visible
02 Oct ? 21:46:07 10° WSW 21:49:10 15° W 21:52:19 10° NW visible
03 Oct ? 19:31:05 10° SSE 19:36:23 72° ENE 19:42:01 10° NNW visible
03 Oct ? 21:12:01 10° SW 21:16:23 25° W 21:20:57 10° NNW visible
04 Oct ? 20:38:42 10° SSW 20:43:45 41° W 20:49:04 10° NNW visible
